Overview Statistics Trail Chart Weather Telemetry Raw packets
 

This is the latest recevied weather packets stored in our database for station/object HB9FHL-13. If no packets are shown the sender has not sent any weather packets the latest 10 day(s).

<< 1 2 3 4 5 >>
Time Temp. Humidity Pressure Rain* Wind** Luminosity Snow
1788678404 17.78° C - 1027.7 hPa 0 mm - - -
1788678105 17.22° C - 1028 hPa 0 mm - - -
1788677807 17.78° C - 1027.6 hPa 0 mm - - -
1788677803 17.78° C - 1027.6 hPa 0 mm - - -
1788677505 16.67° C - 1029.8 hPa 0 mm - - -
1788677502 16.67° C - 1029.8 hPa 0 mm - - -
1788677202 16.67° C - 1027.1 hPa 0 mm - - -
1788676906 16.67° C - 1028.5 hPa 0 mm - - -
1788676901 16.67° C - 1028.5 hPa 0 mm - - -
1788676602 17.78° C - 1027.9 hPa 0 mm - - -
1788676598 17.78° C - 1027.9 hPa 0 mm - - -
1788675696 16.67° C - 1026.6 hPa 0 mm - - -
1788675395 16.67° C - 1029.9 hPa 0 mm - - -
1788675095 16.67° C - 1027.4 hPa 0 mm - - -
1788674798 17.22° C - 1028.5 hPa 0 mm - - -
1788674794 17.22° C - 1028.5 hPa 0 mm - - -
1788674498 16.67° C - 1027.6 hPa 0 mm - - -
1788674494 16.67° C - 1027.6 hPa 0 mm - - -
1788674190 17.22° C - 1026.4 hPa 0 mm - - -
1788673644 16.67° C - 1026.6 hPa 0 mm - - -
1788673587 16.67° C - 1026.6 hPa 0 mm - - -
1788673288 16.67° C - 1027.7 hPa 0 mm - - -
1788672986 16.67° C - 1026 hPa 0 mm - - -
1788672386 16.67° C - 1027.2 hPa 0 mm - - -
1788672085 16.11° C - 1025.9 hPa 0 mm - - -

* Rain since midnight (hover to see other rain measurements)
** Current wind speed in m/s (hover to see current wind gust speed)